Zurück zum Katalog

NOAA 16 DEB

AktivPO
NORAD 41349·DEBRIS·🇺🇸 United States

Gestartet Sep 21, 2000 von Vandenberg Space Force Base

Loading…

Nächste Überflüge (nächste 24 Stunden)

TLE

AktuellSource: Space-Track

Epoche: Sep 14, 2026, 13:41 UTC

1 41349U 00055HS  26257.57074987  .00004115  00000-0  97204-3 0  9996
2 41349  98.9615 115.3686 0026451 186.9408 173.1425 14.54558657556442

Verfolge NOAA 16 DEB in Echtzeit mit AllMySat

Download on the App Store